Regional Weather Roundup
Issued by NWS Wakefield, VA

Home | Current Version | Previous Version | Text Only | Print | Product List | Glossary Off
Versions: 1 2 3 4 5 6 7 8 9 10 11 12 13 14 15 16 17 18 19 20 21 22 23 24 25 26 27

000
ASUS41 KAKQ 250415
RWRAKQ

REGIONAL WEATHER ROUNDUP
NATIONAL WEATHER SERVICE WAKEFIELD VA
1200 AM EDT SAT MAR 25 2017

Note: "fair" indicates few or no clouds below 12,000 feet with no
significant weather and/or obstructions to visibility. * = Denotes
station may not report precipitation (e.g., rain,snow,etc.),
thunder or fog.

VAZ042-051-052>054-056-250500-
NORTHERN VIRGINIA

CITY           SKY/WX    TMP DP  RH WIND       PRES   REMARKS
WASH NATIONAL  CLEAR     57  48  72 S10       30.19S
DULLES         CLOUDY    60  45  57 S10       30.18S
FORT BELVOIR   CLEAR     63  46  53 SW6       30.19S
QUANTICO       CLEAR     65  47  52 W8G18     30.22R
FREDERICKSBRG* CLEAR     64  48  57 SW10G18   30.21R
STAFFORD*      CLEAR     62  46  55 SW8G16    30.25R
WARRENTON      CLEAR     61  43  51 SW5       30.20S
CULPEPER*      PTCLDY    60  47  63 SW5       30.21S
MANASSAS*      CLOUDY    62  47  57 SW9       30.20R
LEESBURG*      CLOUDY    59  48  67 S9        30.19R
WINCHESTER     PTCLDY    61  43  51 SW12G17   30.17S
FRONT ROYAL*     N/A    N/A N/A N/A MISG        N/A
LURAY*         PTCLDY    61  46  59 S7        30.21S
$$

VAZ048-049-060>072-079>083-250500-
CENTRAL AND SOUTH CENTRAL VIRGINIA

CITY           SKY/WX    TMP DP  RH WIND       PRES   REMARKS
RICHMOND       PTCLDY    60  48  64 SW10      30.26R
CHESTERFIELD*  FAIR     N/A N/A N/A SW9       30.27S
PETERSBURG*    CLEAR     59  46  61 S5        30.28R
HANOVER        CLEAR     62  45  53 SW10      30.26S
TAPPAHANNOCK*  CLEAR     62  34  34 SW7       30.24S
QUINTON*       FAIR      62  48  61 MISG      30.25S
CHARLOTTSVILLE PTCLDY    60  46  59 CALM      30.23R
GORDONSVILLE*  PTCLDY    61  47  58 SW10G16   30.21S
ORANGE*        PTCLDY    59  45  58 S14       30.23R
LOUISA*        CLEAR     64  50  59 SW8       30.22S
BUMPASS*       FAIR      61  46  58 SW9G17    30.23S
FARMVILLE*     CLOUDY    62  49  61 SW8       30.26S
CREWE*         FAIR      60  48  63 S6        30.28S
FORT PICKETT*  FAIR      60  41  50 SW12      30.28S
CHASE CITY*    FAIR      59  45  61 SW3       30.30S
CLARKSVILLE*   FAIR      55  46  71 S6        30.30F
SOUTH HILL*    CLEAR     57  48  72 S7        30.36S
LAWRENCEVILLE* FAIR      58  46  64 SW7       30.30R
EMPORIA*       CLEAR     59  45  58 S5        30.32S
$$

VAZ088>098-250500-
SOUTHEAST VIRGINIA

CITY           SKY/WX    TMP DP  RH WIND       PRES   REMARKS
NORFOLK        CLEAR     60  47  61 SW18      30.28S
VIRGINIA BEACH CLEAR     60  47  61 SW15G24   30.29S
NORFOLK NAVAL  PTCLDY    62  46  55 SW13      30.30S
WEST POINT*    CLEAR     61  46  56 SW8       30.27S
SALUDA*        FAIR      63  48  59 SW8G20    30.24R
NEWPORT NEWS   CLEAR     60  46  59 SW12      30.28S
LANGLEY AFB    CLEAR     61  47  62 SW15      30.27S
FORT EUSTIS    CLEAR     61  47  60 S8        30.26R
WILLIAMSBURG*  CLEAR     64  48  55 SW3       30.28S
HR EXEC AP*    FAIR      59  46  63 SW10G16   30.28F
FRANKLIN*      CLEAR     60  48  65 SW10G17   30.31F
US460-WAKEFLD  CLEAR     60  47  61 S5        30.29S
$$

VAZ020-022-025-037-045-250500-
WEST CENTRAL AND SOUTHWEST VIRGINIA

CITY           SKY/WX    TMP DP  RH WIND       PRES   REMARKS
STAUNTON*      CLOUDY    58  45  61 S5        30.26S
WAYNESBORO*    CLOUDY    61  47  60 SW9G16    30.25R
HOT SPRINGS VA CLOUDY    54  41  62 W10       30.31S
LYNCHBURG      CLOUDY    58  45  62 SW5       30.29S
DANVILLE       CLOUDY    58  48  69 SW5       30.31S
SOUTH BOSTON*  FAIR      60  46  59 SW6       30.30S
MARTINSVILLE   CLOUDY    55  44  67 CALM      30.33S
ROANOKE        MOCLDY    61  46  57 W6        30.30S
BLACKSBURG     MOCLDY    55  47  73 CALM      30.34S
DUBLIN*        CLOUDY    55  47  74 SW6       30.33S
MARION*        PTCLDY    52  46  80 CALM      30.34S
HILLSVILLE*    CLOUDY    54  46  75 S6        30.33S
RICHLANDS*     MOCLDY    58  47  64 CALM      30.30F
WISE*          CLOUDY    59  45  58 CALM      30.30F
ABINGDON*      PTCLDY    60  47  62 W5        30.31S
$$

MDZ021>025-VAZ099-100-250500-
SOUTHERN MARYLAND AND THE DELMARVA PENINSULA

CITY           SKY/WX    TMP DP  RH WIND       PRES   REMARKS
PATUXENT RIVER CLEAR     61  50  67 SW12      30.22R
BAY BRIDGE APT CLEAR     59  46  63 S7        30.18S
LEONARDTOWN    CLEAR     61  45  55 SW8       30.24S
DOVER          PTCLDY    59  49  68 S15       30.16S
GEORGETOWN     CLEAR     60  46  59 SW12      30.21R
EASTON         CLEAR     56  46  67 SW8       30.23S
CAMBRIDGE      CLEAR     55  46  71 S6        30.22S
SALISBURY      CLEAR     58  47  66 S9        30.22F
OCEAN CITY     PTCLDY    53  45  74 SW10      30.23F
WALLOPS ISLAND CLEAR     47  46  97 S9        30.27R
ACCOMACK*      CLEAR     63  47  55 SW12G17   30.26R
$$

NCZ012>017-030>032-250500-
NORTH CENTRAL AND EASTERN NORTH CAROLINA

CITY           SKY/WX    TMP DP  RH WIND       PRES   REMARKS
ROANOKE RAPIDS FAIR      59  48  67 S10       30.32S
RALEIGH        CLOUDY    60  47  61 SW12      30.35R
ELIZABETH CITY CLEAR     57  49  74 SW13      30.33F
AHOSKIE*         N/A     58  49  71 S5        30.33F
EDENTON*       CLEAR     58  50  74 SW10      30.35S
CURRITUCK*     CLEAR     59  49  69 SW12G18   30.33R
KILL DEVIL HLS NOT AVBL
MANTEO         CLEAR     56  49  78 SW12      30.36S
CAPE HATTERAS  CLEAR     60  52  74 SW10      30.38S
TARBORO*       NOT AVBL
GOLDSBORO      CLEAR     58  51  76 S5        30.35S
WASHINGTON     CLEAR     58  50  73 SW8       30.37S
GREENVILLE     CLEAR     57  50  77 SW7       30.36F
NEW BERN       CLEAR     58  51  78 S9        30.39R
WILMINGTON     CLEAR     55  50  83 S6        30.39S
$$

VAZ048-250500-
ELSEWHERE

CITY           SKY/WX    TMP DP  RH WIND       PRES   REMARKS
HARRISBURG PA  MOCLDY    49  40  71 CALM      30.14S
BALTIMORE      MOCLDY    60  46  59 SW9       30.16S
ANNAPOLIS      CLEAR     62  47  57 VRB5      30.17F
ANDREWS AFB    CLEAR     61  46  58 SW13      30.18S
PHILADELPHIA   MOCLDY    45  34  65 S3        30.18S
HENDERSON NC   CLOUDY    56  44  65 SW10      30.32S
GREENSBORO     CLOUDY    57  47  69 SW7       30.32F
ROCKY MOUNT    CLEAR     57  49  74 S6        30.35S
$$

VAZ100-250500-
MARINE

STATION/POSITION TIME  TEMP    WIND        PRES    WAVE   SWELL
                       AIR SEA DIR/SP/G            HT/PER HT/PER
                 (UTC) (F)     (DEG/KT/KT) (MB)    (FT/S) (FT/S)
CAPE MAY NJ      0348   50 43  230/  8/ 12 1021.9R
LEWES DE         0348          240/ 12/ 18   N/A
OCEAN-CITY-INLET 0348          230/ 13/ 15   N/A
WACHAPREAGUE VA  0348   52 50  220/  9/ 13 1024.5R
THOMAS POINT MD  0400   59 44  210/ 14/ 15   N/A
GOOSES REEF MD   0400   55 44  220/ 14/ 16 1023.1    1/ 2
COVE POINT MD    0348   62     250/ 15/ 21 1023.6R
SOLOMONS ISLAND  0348   58 45  210/ 11/ 13   N/A
BISHOPS HEAD MD  0348   51 48  180/ 10/ 10 1024.2R
PINEY POINT MD   0348          300/  2/  3   N/A
POTOMAC MD       0400   56 45  280/  6/ 10 1023.1    2/ 3
CAMBRIDGE MD     0348   56 44  190/  5/  9 1022.2R
LEWISETTA VA     0348   62 47  240/ 14/ 17 1023.2R
RAPPAHANNOCK LGT 0348          170/ 14/ 14 1025.3R
STINGRAY PT      0350   56     250/ 10/ 12 1024.5R
YORK RVR RNG VA  0348   60     220/ 17/ 18 1024.2R
YORKTOWN VA      0348   63 47  220/ 12/ 16 1024.5R
JAMESTOWN VA     0400   61 51  230/  8/ 12   N/A     0
DOMINION TERM VA 0348   57     220/  9/ 11 1025.7F
KIPTOPEKE VA     0348          210/  9/ 11   N/A
CHES BAY BRIDGE  0348   60 48  230/ 19/ 21 1025.0F
CAPE HENRY VA    0348   62     210/ 10/ 20   N/A
WILLOUBY STN VA  0348   60     220/ 19/ 21 1026.2F
S CRANEY ISL VA  0348   62     210/  8/ 15 1025.6S
CAPE HENRY BUOY  0342      47                N/A     2/ 4
CAPE CHARLES BUO 0351      47                N/A     2/ 4
OFFSHORE WE BUOY 0351      46                N/A     4/ 5
64NM E OF VA BCH 0350   54 51  220/ 17/ 19 1026.4R   4/ 5   2/10
DUCK PIER NC     0348   59 47  200/ 17/ 21 1026.4F
44100 DUCK FRF   0335      48                N/A     3/10
44056 DUCK FRF   0330      48                N/A     2/ 9
OREGON INLET NC  0348          210/ 14/ 17   N/A
HATTERAS NC      0348   60 54  220/  7/ 11 1028.3R
DIAMOND SHLS NC  0350   67 75  210/ 19/ 25 1028.6F   4/11   3/11
CAPE LOOKOUT NC  0300   65     210/ 10/ 12 1028.8F
$$




USA.gov is the U.S. government's official web portal to all federal, state and local government web resources and services.